This is the latest recevied weather packets stored in our database for station/object N3TJJ-11. If no packets are shown the sender has not sent any weather packets the latest 10 day(s).
| Time | Temp. | Humidity | Pressure | Rain* | Wind** | Luminosity | Snow |
|---|---|---|---|---|---|---|---|
| 1777571274 | 14.44° C | 64% | 1006.3 hPa | 0 mm | - | - | - |
| 1777571036 | 14.44° C | 65% | 1006.5 hPa | 0 mm | - | - | - |
| 1777570554 | 15° C | 65% | 1006.3 hPa | 0 mm | - | - | - |
| 1777570441 | 15° C | 66% | 1006.2 hPa | 0 mm | - | - | - |
| 1777569834 | 15° C | 70% | 1006.4 hPa | 0 mm | - | - | - |
| 1777569236 | 13.89° C | 73% | 1006.6 hPa | 0 mm | - | - | - |
| 1777569114 | 13.89° C | 69% | 1006.6 hPa | 0 mm | - | - | - |
| 1777568636 | 14.44° C | 69% | 1006.5 hPa | 0 mm | - | - | - |
| 1777568394 | 15° C | 67% | 1006.6 hPa | 0 mm | - | - | - |
| 1777568068 | 14.44° C | 70% | 1006.6 hPa | 0 mm | - | - | - |
| 1777568036 | 14.44° C | 70% | 1006.6 hPa | 0 mm | - | - | - |
| 1777567674 | 14.44° C | 71% | 1006.6 hPa | 0 mm | - | - | - |
| 1777567436 | 14.44° C | 68% | 1006.6 hPa | 0 mm | - | - | - |
| 1777566954 | 13.89° C | 70% | 1006.7 hPa | 0 mm | - | - | - |
| 1777566836 | 13.89° C | 71% | 1006.7 hPa | 0 mm | - | - | - |
| 1777566235 | 13.89° C | 75% | 1006.8 hPa | 0 mm | - | - | - |
| 1777565639 | 14.44° C | 70% | 1006.8 hPa | 0 mm | - | - | - |
| 1777565514 | 13.89° C | 71% | 1006.7 hPa | 0 mm | - | - | - |
| 1777565036 | 13.89° C | 74% | 1006.8 hPa | 0 mm | - | - | - |
| 1777564794 | 13.33° C | 70% | 1006.9 hPa | 0 mm | - | - | - |
| 1777564436 | 13.33° C | 74% | 1006.8 hPa | 0 mm | - | - | - |
| 1777564074 | 13.33° C | 75% | 1006.8 hPa | 0 mm | - | - | - |
| 1777563836 | 13.33° C | 75% | 1007 hPa | 0 mm | - | - | - |
| 1777563354 | 13.33° C | 75% | 1007.1 hPa | 0 mm | - | - | - |
| 1777563236 | 13.33° C | 78% | 1007.1 hPa | 0 mm | - | - | - |
* Rain latest hour (hover to see other rain measurements)
** Current wind speed in m/s (hover to see current wind gust speed)